Zurück zum Katalog

CZ-6A DEB

AktivPO
NORAD 64660·DEBRIS·🇨🇳 China

Gestartet Aug 6, 2024 von Taiyuan Satellite Launch Center

Loading…

Nächste Überflüge (nächste 24 Stunden)

TLE

AktuellSource: Space-Track

Epoche: Sep 14, 2026, 07:00 UTC

1 64660U 24140AFA 26257.29235293  .00001975  00000-0  71395-3 0  9990
2 64660  88.3378 202.2139 0039181 141.3932 219.0078 14.32720169 98835

Verfolge CZ-6A DEB in Echtzeit mit AllMySat

Download on the App Store